This is the latest recevied weather packets stored in our database for station/object K6HFP. If no packets are shown the sender has not sent any weather packets the latest 10 day(s).
| Time | Temp. | Humidity | Pressure | Rain* | Wind** | Luminosity | Snow |
|---|---|---|---|---|---|---|---|
| 1777906238 | 11.67° C | 86% | 1013.3 hPa | 0 mm | - | 28 W/m² | - |
| 1777905935 | 11.67° C | 85% | 1013.1 hPa | 0 mm | - | 28 W/m² | - |
| 1777905632 | 11.67° C | 85% | 1013.2 hPa | 0 mm | - | 31 W/m² | - |
| 1777905329 | 11.67° C | 85% | 1012.8 hPa | 0 mm | - | 45 W/m² | - |
| 1777905027 | 11.67° C | 85% | 1012.7 hPa | 0 mm | - | 47 W/m² | - |
| 1777904724 | 11.67° C | 85% | 1012.9 hPa | 0 mm | - | 44 W/m² | - |
| 1777904420 | 11.67° C | 84% | 1012.8 hPa | 0 mm | - | 47 W/m² | - |
| 1777904117 | 11.67° C | 85% | 1012.8 hPa | 0 mm | - | 50 W/m² | - |
| 1777903814 | 11.67° C | 85% | 1012.6 hPa | 0 mm | - | 34 W/m² | - |
| 1777903511 | 11.11° C | 84% | 1012.8 hPa | 0 mm | - | 24 W/m² | - |
| 1777903207 | 11.11° C | 84% | 1012.8 hPa | 0 mm | - | 20 W/m² | - |
| 1777902903 | 11.11° C | 84% | 1012.8 hPa | 0 mm | - | 22 W/m² | - |
| 1777902600 | 11.11° C | 85% | 1012.8 hPa | 0 mm | - | 24 W/m² | - |
| 1777902297 | 11.11° C | 86% | 1012.8 hPa | 0 mm | - | 21 W/m² | - |
| 1777901995 | 11.11° C | 86% | 1012.8 hPa | 0 mm | - | 20 W/m² | - |
| 1777901693 | 11.11° C | 86% | 1012.8 hPa | 0 mm | - | 19 W/m² | - |
| 1777901390 | 11.11° C | 85% | 1012.7 hPa | 0 mm | - | 12 W/m² | - |
| 1777901088 | 11.11° C | 86% | 1012.4 hPa | 0 mm | - | 10 W/m² | - |
| 1777900784 | 11.11° C | 86% | 1012.6 hPa | 0 mm | - | 6 W/m² | - |
| 1777900482 | 11.11° C | 85% | 1012.4 hPa | 0 mm | - | 4 W/m² | - |
| 1777900179 | 11.11° C | 85% | 1012.1 hPa | 0 mm | - | 2 W/m² | - |
| 1777899875 | 11.11° C | 85% | 1012.1 hPa | 0 mm | - | 1 W/m² | - |
| 1777899572 | 11.11° C | 85% | 1012.3 hPa | 0 mm | - | 1 W/m² | - |
| 1777899270 | 11.11° C | 85% | 1012.2 hPa | 0 mm | - | 0 W/m² | - |
| 1777898967 | 11.11° C | 84% | 1012.3 hPa | 0 mm | - | 0 W/m² | - |
* Rain latest hour (hover to see other rain measurements)
** Current wind speed in m/s (hover to see current wind gust speed)